Find Starlink 38346

NORAD ID: 100547 Int'l Des: 2026-200 Owner: SPXS Country: US Constellation: starlink operational

Current View

Loading 3D Globe...

About Starlink 38346

Starlink 38346 (NORAD 100547) is a starlink constellation satellite launched Sep 2, 2026 by SPXS of US. with a mass of 575.00 kg.

Upcoming Passes

Passes for default location (London). Set your location on the main map for personalized predictions.

Altitude History

Loading altitude history...

Two-Line Element Set

1 A0547U 26200P 26262.77247833 .00148518 00000-0 71061-3 0 9990
2 A0547 69.9988 137.2490 0003900 268.4936 91.5819 15.82191206 2777
Epoch: Sep 19, 2026 • Age: 22 hours

Current Status

Altitude 345.9 km
Apogee / Perigee N/A
Velocity 7.70 km/s
Sub-Earth Point -68.02°S, 176.87°E
Launch Date Sep 2, 2026
Age 18 days
Type internet

Technical Details

Classification Payload
Mass 575.00 kg
Dry Mass 530.00 kg
Length 0.30 m
Span 29.00 m
Shape ? Box + pan
Manufacturer SPXS
Bus Type Starlink V2MO
Phase Status In Orbit
Owner/State SPXS/US

Most Searched